UAE176 LPPR-LPPT

Flight info

Callsign UAE176
Flight time N/A
Altitude 37000
Route MANIK DCT ABRIL DCT XAMAX
Aircraft A359/H-SDE2E3GHIJ3J4J5LM1ORWXY/LB1D1

Departure

Time 2026-05-07 22:45
Airport Francisco de Sá Carneiro Airport (LPPR)

Arrival

Time N/A
Airport Lisbon Humberto Delgado Airport (LPPT)
Time Latitude Longitude Altitude Speed Heading
2026-05-07 22:19 41.23626 -8.68468 243 ft 0 kts 259°
2026-05-07 22:35 41.23627 -8.68461 243 ft 2 kts 259°
2026-05-07 22:35 41.23630 -8.68440 244 ft 2 kts 262°
2026-05-07 22:36 41.23632 -8.68419 246 ft 2 kts 265°
2026-05-07 22:36 41.23632 -8.68397 247 ft 2 kts 273°
2026-05-07 22:36 41.23630 -8.68376 257 ft 2 kts 296°
2026-05-07 22:36 41.23619 -8.68359 270 ft 2 kts 316°
2026-05-07 22:37 41.23606 -8.68346 252 ft 2 kts 329°
2026-05-07 22:37 41.23592 -8.68336 250 ft 2 kts 336°
2026-05-07 22:37 41.23579 -8.68330 254 ft 1 kts 344°
2026-05-07 22:37 41.23578 -8.68329 254 ft 1 kts 346°
2026-05-07 22:38 41.23595 -8.68335 250 ft 0 kts 344°
2026-05-07 22:38 41.23596 -8.68335 253 ft 0 kts 346°
2026-05-07 22:39 41.23604 -8.68338 252 ft 4 kts 346°
2026-05-07 22:39 41.23654 -8.68351 250 ft 10 kts 358°
2026-05-07 22:39 41.23706 -8.68306 253 ft 8 kts 67°
2026-05-07 22:40 41.23714 -8.68253 256 ft 4 kts 81°
2026-05-07 22:40 41.23717 -8.68221 258 ft 3 kts 85°
2026-05-07 22:40 41.23717 -8.68208 258 ft 0 kts 85°
2026-05-07 22:40 41.23718 -8.68206 258 ft 1 kts 86°
2026-05-07 22:41 41.23718 -8.68180 260 ft 6 kts 90°
2026-05-07 22:41 41.23699 -8.68110 262 ft 10 kts 130°
2026-05-07 22:41 41.23640 -8.68068 265 ft 10 kts 164°
2026-05-07 22:41 41.23578 -8.68049 269 ft 8 kts 168°
2026-05-07 22:42 41.23525 -8.68034 272 ft 7 kts 167°
2026-05-07 22:42 41.23478 -8.68018 274 ft 7 kts 163°
2026-05-07 22:42 41.23433 -8.67995 276 ft 7 kts 155°
2026-05-07 22:42 41.23389 -8.67952 277 ft 8 kts 134°
2026-05-07 22:43 41.23353 -8.67892 279 ft 8 kts 126°
2026-05-07 22:43 41.23322 -8.67829 282 ft 8 kts 116°
2026-05-07 22:43 41.23316 -8.67784 283 ft 7 kts 86°
2026-05-07 22:43 41.23369 -8.67752 282 ft 9 kts 354°
2026-05-07 22:44 41.23422 -8.67763 279 ft 17 kts 350°
2026-05-07 22:44 41.23788 -8.67859 263 ft 93 kts 349°
2026-05-07 22:44 41.24650 -8.68098 247 ft 157 kts 347°
2026-05-07 22:44 41.25816 -8.68435 736 ft 173 kts 349°
2026-05-07 22:45 41.26985 -8.68733 1458 ft 177 kts 349°
2026-05-07 22:45 41.28299 -8.69061 1796 ft 208 kts 349°
2026-05-07 22:45 41.29833 -8.69452 2170 ft 240 kts 349°
2026-05-07 22:45 41.31538 -8.69894 2769 ft 256 kts 349°
2026-05-07 22:46 41.33307 -8.70355 3562 ft 262 kts 348°
2026-05-07 22:46 41.35121 -8.70830 4315 ft 269 kts 348°
2026-05-07 22:46 41.36982 -8.71319 5083 ft 276 kts 348°
2026-05-07 22:46 41.38871 -8.71931 5817 ft 283 kts 338°
2026-05-07 22:47 41.40551 -8.73275 6634 ft 282 kts 313°
2026-05-07 22:47 41.41638 -8.75373 7392 ft 279 kts 287°
2026-05-07 22:47 41.41974 -8.77885 8193 ft 275 kts 263°
2026-05-07 22:47 41.41557 -8.80350 9020 ft 273 kts 245°
2026-05-07 22:48 41.40964 -8.82777 9878 ft 278 kts 246°